This demonstration page uses our WeatherBlox Daily Observations layout. Learn more.

39.51506, -84.39828

Hourly Observations for January 22, 2020

Temp ( °F °C ) Dew Point ( °F °C ) Humidity (%) Winds ( mph kmh ) Pressure ( in mb ) Visibility ( mi km ) Precip ( " mm )
12:15 am 00:15 Clear 15 -9.4 13 -10.4 93 93 Calm 30.56 1035 10 16.0934 0 0
12:35 am 00:35 Clear 15 -9.3 13 -10.3 93 93 Calm 30.56 1035 10 16.0934 0 0
12:55 am 00:55 Clear 16 -9.1 14 -10.1 93 93 Calm 30.55 1035 10 16.0934 0 0
1:15 am 01:15 Clear 14 -10.2 11 -11.5 90 90 Calm 30.54 1034 10 16.0934 0 0
1:35 am 01:35 Clear 14 -10 12 -11 92 92 Calm 30.53 1034 10 16.0934 0 0
1:55 am 01:55 Clear 14 -10 12 -11.1 92 92 Calm 30.52 1034 10 16.0934 0 0
2:15 am 02:15 Clear 14 -10 12 -11.1 92 92 Calm 30.52 1034 10 16.0934 0 0
2:35 am 02:35 Clear 14 -10 12 -11.1 92 92 Calm 30.52 1034 10 16.0934 0 0
2:55 am 02:55 Clear 14 -10.1 12 -11.1 92 92 Calm 30.52 1034 10 16.0934 0 0
3:15 am 03:15 Clear 14 -10.2 12 -11.2 92 92 Calm 30.51 1033 7 11.26538 0 0
3:35 am 03:35 Clear 14 -10.2 12 -11.3 92 92 Calm 30.51 1033 10 16.0934 0 0
3:55 am 03:55 Clear 13 -10.4 11 -11.6 91 91 Calm 30.52 1033 10 16.0934 0 0
4:15 am 04:15 Clear 13 -10.6 11 -11.7 92 92 Calm 30.51 1033 7 11.26538 0 0
4:35 am 04:35 Clear 13 -10.6 11 -11.7 92 92 Calm 30.51 1033 7 11.26538 0 0
4:55 am 04:55 Clear 13 -10.5 11 -11.5 92 92 Calm 30.51 1033 7 11.26538 0 0
5:15 am 05:15 Clear 13 -10.6 11 -11.5 93 93 Calm 30.5 1033 7 11.26538 0 0
5:35 am 05:35 Clear 12 -10.9 11 -11.9 92 92 Calm 30.49 1032 7 11.26538 0 0
5:55 am 05:55 Clear 13 -10.5 11 -11.4 93 93 Calm 30.49 1032 7 11.26538 0 0
6:15 am 06:15 Clear 12 -11.2 10 -12.2 92 92 Calm 30.49 1032 7 11.26538 0 0
6:35 am 06:35 Clear 13 -10.7 11 -11.6 93 93 Calm 30.49 1032 7 11.26538 0 0
6:55 am 06:55 Clear 13 -10.8 11 -11.7 93 93 Calm 30.5 1033 7 11.26538 0 0
7:15 am 07:15 Clear 13 -10.7 11 -11.5 94 94 Calm 30.49 1032 7 11.26538 0 0
7:35 am 07:35 Clear 12 -10.9 11 -11.9 92 92 Calm 30.49 1032 7 11.26538 0 0
7:55 am 07:55 Sunny with Mist and Fog 12 -11.3 10 -12.3 92 92 Calm 30.49 1032 7 11.26538 0 0
8:15 am 08:15 Sunny with Mist and Fog 12 -10.9 10 -12 92 92 Calm 30.48 1032 7 11.26538 0 0
8:35 am 08:35 Sunny 14 -10 12 -11.1 92 92 Calm 30.47 1032 7 11.26538 0 0
8:55 am 08:55 Sunny 17 -8.2 15 -9.2 93 93 Calm 30.47 1032 7 11.26538 0 0
9:15 am 09:15 Sunny 20 -6.4 17 -8.1 88 88 Calm 30.46 1032 10 16.0934 0 0
9:35 am 09:35 Sunny 23 -5.2 18 -7.8 82 82 Calm 30.47 1032 10 16.0934 0 0
9:55 am 09:55 Sunny 24 -4.3 19 -7.2 80 80 SW 3 6 30.48 1032 10 16.0934 0 0
10:15 am 10:15 Sunny 26 -3.5 19 -7.1 76 76 WSW 5 7 30.47 1032 10 16.0934 0 0
10:35 am 10:35 Sunny 27 -2.7 19 -7.1 72 72 SSW 6 9 30.47 1032 10 16.0934 0 0
10:55 am 10:55 Sunny 30 -1.3 19 -7.2 65 65 SW 10 17 30.48 1032 10 16.0934 0 0
11:15 am 11:15 Sunny 31 -0.5 18 -7.6 59 59 SW 12 19 30.48 1032 10 16.0934 0 0
11:35 am 11:35 Sunny 31 -0.5 17 -8.1 57 57 SW 12 19 30.48 1032 10 16.0934 0 0
11:55 am 11:55 Sunny 31 -0.3 17 -8.2 56 56 SSW 10 17 30.47 1032 10 16.0934 0 0
12:15 pm 12:15 Sunny 32 0 17 -8.5 53 53 SW 6 9 30.45 1031 10 16.0934 0 0
12:35 pm 12:35 Sunny 33 0.3 16 -8.8 51 51 S 8 13 30.43 1031 10 16.0934 0 0
12:55 pm 12:55 Sunny 33 0.7 16 -8.8 49 49 SSW 7 11 30.41 1030 10 16.0934 0 0
1:15 pm 13:15 Sunny 34 1 16 -8.7 49 49 SSW 9 15 30.4 1030 10 16.0934 0 0
1:35 pm 13:35 Sunny 34 1.3 16 -8.9 47 47 SSW 8 13 30.39 1029 10 16.0934 0 0
1:55 pm 13:55 Sunny 35 1.7 16 -9.1 45 45 S 9 15 30.38 1029 10 16.0934 0 0
2:15 pm 14:15 Sunny 35 1.9 15 -9.5 43 43 S 7 11 30.37 1028 10 16.0934 0 0
2:35 pm 14:35 Sunny 37 2.6 15 -9.3 42 42 S 9 15 30.36 1028 10 16.0934 0 0
2:55 pm 14:55 Sunny 37 2.5 15 -9.4 41 41 SSW 6 9 30.36 1028 10 16.0934 0 0
3:15 pm 15:15 Sunny 37 2.7 16 -9.1 42 42 Calm 30.35 1028 10 16.0934 0 0
3:35 pm 15:35 Sunny 38 3.6 14 -9.8 37 37 S 6 9 30.34 1027 10 16.0934 0 0
3:55 pm 15:55 Sunny 39 3.8 15 -9.6 37 37 SSE 7 11 30.34 1027 10 16.0934 0 0
4:15 pm 16:15 Sunny 39 3.7 14 -10.1 36 36 SSE 6 9 30.33 1027 10 16.0934 0 0
4:35 pm 16:35 Sunny 38 3.1 15 -9.5 39 39 SE 6 9 30.33 1027 10 16.0934 0 0
4:55 pm 16:55 Sunny 38 3.3 14 -9.9 38 38 SSE 3 6 30.34 1027 10 16.0934 0 0
5:15 pm 17:15 Sunny 37 2.8 14 -10.1 38 38 Calm 30.33 1027 10 16.0934 0 0
5:35 pm 17:35 Sunny 37 2.6 14 -9.9 40 40 Calm 30.33 1027 10 16.0934 0 0
5:55 pm 17:55 Clear 35 1.9 15 -9.7 42 42 Calm 30.32 1027 10 16.0934 0 0
6:15 pm 18:15 Clear 31 -0.6 20 -6.5 65 65 S 3 6 30.34 1027 10 16.0934 0 0
6:35 pm 18:35 Clear 30 -1 21 -6.3 68 68 Calm 30.34 1027 10 16.0934 0 0
6:55 pm 18:55 Clear 31 -0.8 20 -6.8 64 64 Calm 30.34 1027 10 16.0934 0 0
7:15 pm 19:15 Clear 29 -1.5 20 -6.7 68 68 S 3 6 30.33 1027 10 16.0934 0 0
7:35 pm 19:35 Clear 31 -0.8 20 -6.9 64 64 SE 3 6 30.33 1027 10 16.0934 0 0
7:55 pm 19:55 Clear 30 -1.3 20 -6.9 66 66 Calm 30.33 1027 10 16.0934 0 0
8:15 pm 20:15 Clear 27 -2.6 21 -6 78 78 Calm 30.34 1028 10 16.0934 0 0
8:35 pm 20:35 Clear 28 -2.5 22 -5.6 80 80 Calm 30.34 1028 10 16.0934 0 0
8:55 pm 20:55 Clear 28 -2.4 22 -5.8 78 78 Calm 30.33 1027 10 16.0934 0 0
9:15 pm 21:15 Clear 28 -2.3 22 -5.4 80 80 Calm 30.33 1027 10 16.0934 0 0
9:35 pm 21:35 Clear 28 -2.4 23 -5.2 81 81 Calm 30.33 1027 10 16.0934 0 0
9:55 pm 21:55 Clear 28 -2.3 22 -5.3 80 80 Calm 30.32 1027 10 16.0934 0 0
10:15 pm 22:15 Clear 27 -2.7 22 -5.6 81 81 Calm 30.32 1027 10 16.0934 0 0
10:35 pm 22:35 Clear 27 -2.6 22 -5.3 82 82 Calm 30.32 1027 10 16.0934 0 0
10:55 pm 22:55 Clear 27 -2.9 22 -5.5 82 82 SE 5 7 30.31 1027 10 16.0934 0 0
11:15 pm 23:15 Clear 27 -2.7 23 -5 84 84 Calm 30.31 1027 10 16.0934 0 0
11:35 pm 23:35 Clear 28 -2.5 22 -5.3 81 81 Calm 30.31 1026 10 16.0934 0 0
11:55 pm 23:55 Clear 26 -3.1 23 -5.2 86 86 Calm 30.31 1027 10 16.0934 0 0

Powered by AerisWeather